Current weather by "City, St" or "zip code"  
 
Advertise Here

Current Conditions: Friday Harbor Airport, WA

Fair


68.0 F

Last Updated on Jun 18 2021, 3:53 pm PDT
Humidity: 55%
Wind Speed: 4.6 mph
Barometer 30.10 in
Dewpoint: 51.1 F
Visibility: 10.00 mi
Precip: --
Heat Index: NA
Wind Chill: NA
Current conditions at:

Friday Harbor Airport, WA (KFHR)

Lat: 48.52 Lon: 123.02637

Local Radar Image active severe weather and emergency alerts image image weather storm and storm spotter reports image weather observation monitoring service image
Local
Radar
Active
Alerts
Storm Reports Obs
Monitoring

Sign-up For Email & Text Message Weather Alert Notification Services


Advertise Here

Observation History for Friday Harbor Airport, WA


Time Wind
(mph)
Vis
(mi)
Weather Precip (in) Temperature (F) Relative
Humidity
Wind
Chill
(F)
Heat
Index
(F)
Pressure
Air Dwpt altimeter
(in)
sea level
(mb)
Rmks
3:53 pm PDT 4.6 10.00 Fair -- 68.0 51.1 55% NA NA 30.10 1019.1
1:53 pm PDT SW 8.1 10.00 Fair -- 66.0 52.0 61% NA NA 30.11 1019.7
12:53 pm PDT SW 8.1 10.00 Fair -- 65.0 52.0 63% NA NA 30.13 1020.1
11:53 am PDT SW 8.1 10.00 Fair -- 65.0 51.1 61% NA NA 30.13 1020.1
10:53 am PDT 3.5 10.00 Fair -- 65.0 52.0 63% NA NA 30.12 1020.1
9:53 am PDT N 0.0 10.00 A Few Clouds -- 64.0 51.1 63% NA NA 30.13 1020.2
8:53 am PDT N 0.0 10.00 NULL -- 61.0 50.0 67% NA NA 30.13 1020.2
7:53 am PDT W 5.8 10.00 Fair -- 55.0 48.9 80% 54 NA 30.13 1020.2
6:53 am PDT SW 5.8 10.00 Fair -- 55.0 50.0 83% 54 NA 30.12 1019.9
5:53 am PDT W 3.5 10.00 Fair -- 52.0 48.0 86% NA NA 30.10 1019.3
4:53 am PDT N 0.0 10.00 Fair -- 48.0 46.0 93% NA NA 30.10 1019.3
2:53 am PDT W 4.6 10.00 Fair -- 50.0 46.9 89% 48 NA 30.09 1019.0
1:53 am PDT N 0.0 10.00 Fair -- 49.0 46.0 90% NA NA 30.10 1019.2
12:53 am PDT N 0.0 10.00 Fair -- 50.0 46.0 86% NA NA 30.10 1019.4
11:53 pm PDT SW 4.6 10.00 Fair -- 54.0 46.9 77% 53 NA 30.10 1019.4
10:53 pm PDT W 5.8 10.00 Fair -- 59.0 39.9 49% 58 NA 30.10 1019.3
9:53 pm PDT SW 8.1 10.00 Fair -- 60.0 37.9 44% 59 NA 30.10 1019.3
7:53 pm PDT SW 8.1 10.00 Fair -- 61.0 43.0 52% 60 NA 30.11 1019.5
6:53 pm PDT SW 9.2 10.00 Fair -- 63.0 44.1 50% 62 NA 30.13 1020.2
5:53 pm PDT SW 10.4 10.00 Fair -- 67.0 48.0 51% NA NA 30.15 1020.9
4:53 pm PDT SW 9.2 10.00 Fair -- 69.0 48.9 49% NA NA 30.16 1021.2

Regional Weather Observation


Eastsound, Orcas Island Airport, WA (KORS)

Fair
68.0 F

Port Angeles Coast Guard Air Station, WA (KNOW)

Fair and Breezy
58.0 F

Bellingham, Bellingham International Airport, WA (KBLI)

Fair
68.0 F

Port Angeles Fairchild International Airport, WA (KCLM)

Fair
61.0 F

Whidbey Island Naval Air Station - Ault Field, WA (KNUW)

Mostly Cloudy
63.0 F

Burlington/Mount Vernon, Skagit Regional Airport, WA (KBVS)

Fair
73.0 F
Advertise Here

Advertise Here